A/2019 U6

Japanese version
Home page
Updated on February 19, 2020

---------------------------------------------------------------------

* Profile

Discovery Date October 31, 2019
Magnitude 20.5 mag
Discoverer Mt. Lemmon Survey

* Orbital Elements

Epoch 2020 May 31.0 TT = JDT 2459000.5
T 2020 June 18.82296 TT                                 Bell
q   0.9142512            (2000.0)            P               Q
z  +0.0023116      Peri.  329.66053     -0.68858193     +0.06105148
 +/-0.0000017      Node   235.70592     -0.35185192     -0.89942343
e   0.9978866      Incl.   61.00161     -0.63407819     +0.43279349
H   14.5
From 78 observations 2018 Nov. 6-2020 Feb. 5, mean residual 0".3.

* Finding Charts

* Magnitudes Graph

        m1 = 11.0 + 5 log d + 10.0 log r

---------------------------------------------------------------------

The orbital elements are published on M.P.E.C. 2020-C98.
The charts are made with StellaNavigator Ver.10 (AstroArts).
The magnitudes graphs are made with Comet for Windows.

---------------------------------------------------------------------

Copyright(C) Seiichi Yoshida (comet@aerith.net). All rights reserved.